Погода в Ванновском

Россия / Краснодарский край     45°19′20″N   40°13′49″E
темп.,
°C
ветер,
м/с
пор.,
м/с
влажн.,
%
обл.,
%
осадки,
мм/ч
давл.,
гПа
погр.,
м
4 декабря, сб
сб400:00+6ю346195 0.0 101842
03:00+6ю4867100 0.0 1018118
06:00+7ю3660100 0.0 1017107
09:00+8ю355446 0.0 101777
12:00+13ю354198 0.0 1015254
15:00+13ююв1147100 0.0 101511
18:00+10вюв335246 0.0 101325
21:00+9юв3357100 0.0 101230
5 декабря, вс
вс500:00+8ююз2259100 0.0 101211
03:00+8ююз2260100 0.0 101212
06:00+8зсз1265100 0.0 101229
09:00+9ю2269100 0.0 101328
12:00+10ю376267 0.0 1012193
15:00+11ююв345887 0.0 101374
18:00+11ююв2261100 0.0 101414
21:00+10ююз226892 0.1 101520
6 декабря, пн
пн600:00+10ююз237497 0.1 101546
03:00+10ююз3487100 0.2 101682
06:00+8ю229121 0.0 101714
09:00+9юв247284 0.0 1018107
12:00+12юв235893 0.0 1017157
15:00+13вюв2257100 0.0 101825
18:00+10в336086 0.0 101837
21:00+9вюв35705 0.0 101873
7 декабря, вт
вт700:00+9юв346233 0.0 101845
03:00+8юв35625 0.0 101765
06:00+8юв47645 0.0 101794
09:00+9вюв410635 0.0 1016169
12:00+15вюв594449 0.0 1014300
15:00+14в594599 0.0 1012277
18:00+10в6135195 0.0 1010262
21:00+8в6126599 0.0 1009267
8 декабря, ср
ср800:00+7в5107526 0.0 1008217
03:00+5всв35854 0.0 100875
06:00+5в36860 0.0 100891
09:00+6в357799 0.0 100892
12:00+11всв225494 0.0 1008167
15:00+12всв2258100 0.0 100870
18:00+9в2270100 0.0 100912
21:00+8вюв337098 0.0 100944